TimeCST,TemperatureF,Dew PointF,Humidity,Sea Level PressureIn,VisibilityMPH,Wind Direction,Wind SpeedMPH,Gust SpeedMPH,PrecipitationIn,Events,Conditions,WindDirDegrees,DateUTC
12:15 AM,51.8,41.0,67,30.27,10.0,NNE,9.2,-,N/A,,Scattered Clouds,20,2012-12-05 06:15:00
12:35 AM,51.8,41.0,67,30.27,10.0,NNE,9.2,-,N/A,,Mostly Cloudy,30,2012-12-05 06:35:00
12:55 AM,51.8,39.2,62,30.26,10.0,NNE,9.2,-,N/A,,Mostly Cloudy,20,2012-12-05 06:55:00
1:35 AM,50.0,39.2,66,30.27,10.0,NE,9.2,-,N/A,,Clear,40,2012-12-05 07:35:00
1:55 AM,48.2,39.2,71,30.27,10.0,NNE,8.1,-,N/A,,Clear,30,2012-12-05 07:55:00
2:35 AM,48.2,39.2,71,30.27,10.0,NE,9.2,-,N/A,,Partly Cloudy,40,2012-12-05 08:35:00
2:55 AM,48.2,37.4,66,30.27,10.0,NE,6.9,-,N/A,,Clear,50,2012-12-05 08:55:00
3:15 AM,48.2,37.4,66,30.27,10.0,NE,9.2,-,N/A,,Clear,40,2012-12-05 09:15:00
3:36 AM,48.2,37.4,66,30.28,10.0,NE,8.1,-,N/A,,Clear,40,2012-12-05 09:36:00
3:55 AM,48.2,37.4,66,30.28,10.0,NE,9.2,-,N/A,,Clear,40,2012-12-05 09:55:00
4:15 AM,46.4,37.4,71,30.28,10.0,NE,8.1,-,N/A,,Clear,40,2012-12-05 10:15:00
4:36 AM,48.2,37.4,66,30.28,10.0,NE,9.2,-,N/A,,Clear,40,2012-12-05 10:36:00
4:55 AM,46.4,37.4,71,30.28,10.0,NE,9.2,-,N/A,,Clear,40,2012-12-05 10:55:00
5:15 AM,46.4,35.6,66,30.29,10.0,NE,9.2,-,N/A,,Clear,50,2012-12-05 11:15:00
5:55 AM,46.4,35.6,66,30.31,10.0,NNE,9.2,-,N/A,,Clear,30,2012-12-05 11:55:00
6:15 AM,46.4,35.6,66,30.31,10.0,NNE,9.2,-,N/A,,Clear,30,2012-12-05 12:15:00
6:35 AM,46.4,35.6,66,30.32,10.0,NNE,11.5,-,N/A,,Clear,30,2012-12-05 12:35:00
7:56 AM,46.4,35.6,66,30.34,10.0,NE,9.2,-,N/A,,Clear,50,2012-12-05 13:56:00
8:55 AM,50.0,37.4,62,30.34,10.0,ENE,11.5,-,N/A,,Clear,60,2012-12-05 14:55:00
9:16 AM,51.8,39.2,62,30.34,10.0,NE,13.8,-,N/A,,Clear,50,2012-12-05 15:16:00
9:35 AM,51.8,39.2,62,30.34,10.0,ENE,12.7,-,N/A,,Clear,70,2012-12-05 15:35:00
9:55 AM,53.6,39.2,58,30.33,10.0,ENE,12.7,-,N/A,,Clear,60,2012-12-05 15:55:00
10:35 AM,55.4,37.4,51,30.32,10.0,NE,13.8,19.6,N/A,,Clear,50,2012-12-05 16:35:00
10:55 AM,57.2,37.4,48,30.31,10.0,ENE,10.4,-,N/A,,Clear,60,2012-12-05 16:55:00
11:15 AM,57.2,37.4,48,30.30,10.0,ENE,10.4,18.4,N/A,,Clear,60,2012-12-05 17:15:00
11:36 AM,59.0,37.4,45,30.29,10.0,ENE,10.4,-,N/A,,Clear,70,2012-12-05 17:36:00
11:55 AM,59.0,37.4,45,30.28,10.0,ENE,13.8,-,N/A,,Clear,60,2012-12-05 17:55:00
12:15 PM,60.8,37.4,42,30.27,10.0,ENE,15.0,-,N/A,,Clear,60,2012-12-05 18:15:00
12:55 PM,60.8,35.6,39,30.25,10.0,ENE,15.0,21.9,N/A,,Clear,60,2012-12-05 18:55:00
1:15 PM,60.8,35.6,39,30.24,10.0,NE,12.7,18.4,N/A,,Clear,40,2012-12-05 19:15:00
1:35 PM,60.8,35.6,39,30.24,10.0,ENE,8.1,-,N/A,,Clear,60,2012-12-05 19:35:00
2:15 PM,60.8,35.6,39,30.22,10.0,ENE,10.4,-,N/A,,Clear,60,2012-12-05 20:15:00
2:35 PM,62.6,35.6,37,30.22,10.0,ENE,13.8,17.3,N/A,,Clear,70,2012-12-05 20:35:00
2:55 PM,60.8,33.8,36,30.22,10.0,NE,11.5,16.1,N/A,,Clear,50,2012-12-05 20:55:00
3:16 PM,60.8,33.8,36,30.22,10.0,NE,11.5,-,N/A,,Clear,50,2012-12-05 21:16:00
3:35 PM,60.8,33.8,36,30.22,10.0,NE,10.4,-,N/A,,Clear,50,2012-12-05 21:35:00
3:55 PM,60.8,33.8,36,30.22,10.0,NE,10.4,-,N/A,,Clear,40,2012-12-05 21:55:00
4:35 PM,57.2,32.0,38,30.21,10.0,NE,8.1,-,N/A,,Clear,50,2012-12-05 22:35:00
4:55 PM,55.4,32.0,41,30.21,10.0,NE,8.1,-,N/A,,Clear,50,2012-12-05 22:55:00
5:15 PM,55.4,32.0,41,30.20,10.0,ENE,5.8,-,N/A,,Clear,70,2012-12-05 23:15:00
5:55 PM,53.6,30.2,41,30.19,10.0,NE,3.5,-,N/A,,Clear,50,2012-12-05 23:55:00
6:15 PM,53.6,30.2,41,30.19,10.0,NE,3.5,-,N/A,,Clear,40,2012-12-06 00:15:00
6:55 PM,51.8,30.2,44,30.19,10.0,ENE,4.6,-,N/A,,Clear,60,2012-12-06 00:55:00
7:15 PM,51.8,30.2,44,30.19,10.0,NE,4.6,-,N/A,,Clear,50,2012-12-06 01:15:00
7:35 PM,51.8,30.2,44,30.19,10.0,NE,5.8,-,N/A,,Clear,50,2012-12-06 01:35:00
7:56 PM,51.8,30.2,44,30.19,10.0,NE,4.6,-,N/A,,Clear,50,2012-12-06 01:56:00
8:15 PM,50.0,30.2,47,30.19,10.0,ENE,5.8,-,N/A,,Clear,60,2012-12-06 02:15:00
8:35 PM,48.2,30.2,50,30.18,10.0,ENE,5.8,-,N/A,,Clear,60,2012-12-06 02:35:00
9:15 PM,48.2,30.2,50,30.17,10.0,NE,4.6,-,N/A,,Clear,50,2012-12-06 03:15:00
9:35 PM,48.2,30.2,50,30.16,10.0,ENE,5.8,-,N/A,,Clear,60,2012-12-06 03:35:00
9:55 PM,48.2,30.2,50,30.16,10.0,NE,4.6,-,N/A,,Clear,50,2012-12-06 03:55:00
10:35 PM,48.2,30.2,50,30.16,10.0,NE,4.6,-,N/A,,Clear,50,2012-12-06 04:35:00
10:55 PM,46.4,28.4,50,30.16,10.0,NE,5.8,-,N/A,,Clear,50,2012-12-06 04:55:00
11:15 PM,46.4,30.2,53,30.15,10.0,ENE,5.8,-,N/A,,Clear,70,2012-12-06 05:15:00
11:35 PM,46.4,30.2,53,30.14,10.0,ENE,5.8,-,N/A,,Clear,70,2012-12-06 05:35:00
11:55 PM,46.4,30.2,53,30.13,10.0,ENE,6.9,-,N/A,,Clear,60,2012-12-06 05:55:00